Weather History for Melfa, VA

Change the Weather History Date:

Monday, January 28, 2013

  Actual Average (KWAL) Record (KWAL)
Temperature  
Mean Temperature 42 °F 37 °F  
Max Temperature 51 °F 45 °F 69 °F (1999)
Min Temperature 33 °F 28 °F 8 °F (1987)
Degree Days  
Heating Degree Days 23    
Month to date heating degree days  
Since 1 July heating degree days  
Cooling Degree Days 0    
Month to date cooling degree days  
Year to date cooling degree days  
Moisture  
Dew Point 36 °F    
Average Humidity 74    
Maximum Humidity 93    
Minimum Humidity 54    
Precipitation  
Precipitation 0.05 in 0.10 in 3.57 in (1998)
Month to date precipitation 2.74  
Year to date precipitation 2.74  
Sea Level Pressure  
Sea Level Pressure 30.27 in    
Wind  
Wind Speed 9 mph (SW)    
Max Wind Speed 18 mph    
Max Gust Speed 26 mph    
Visibility 9 miles    
Events Rain , Snow    
T = Trace of Precipitation, MM = Missing Value Source: NWS Daily Summary

Daily Weather History Graph

Daily Weather History Graph

Search for Another Location

Airport:

Trip Planner

Search our weather history database for the weather conditions in past years. The results will help you decide how hot, cold, wet, or windy it might be!

Date:

Astronomy

Jan. 28, 2013 Rise Set
Actual Time 7:09 AM EST 5:22 PM EST
Civil Twilight 6:41 AM EST 5:50 PM EST
Nautical Twilight 6:10 AM EST 6:22 PM EST
Astronomical Twilight 5:39 AM EST 6:53 PM EST
Moon 7:11 PM EST (1/28) 7:36 AM EST (1/28)
Length of Visible Light 11h 08m
Length of Day
10h 12m
Full, 98% of the Moon is Illuminated
Jan 28
Full
Feb 3
Last Quarter
Feb 10
New
Feb 17
First Quarter
Feb 25
Full

Hourly Weather History & Observations

Time (EST) Temp. Windchill Dew Point Humidity Pressure Visibility Wind Dir Wind Speed Gust Speed Precip Events Conditions
6:17 AM 35.6 °F 30.7 °F 23.0 °F 60% 30.47 in 10.0 mi South 5.8 mph - N/A   Overcast
6:36 AM 35.6 °F 31.7 °F 24.8 °F 65% 30.46 in 10.0 mi South 4.6 mph - N/A   Mostly Cloudy
6:56 AM 35.6 °F 32.8 °F 24.8 °F 65% 30.46 in 10.0 mi South 3.5 mph - N/A Snow Light Snow
7:16 AM 35.6 °F 30.7 °F 24.8 °F 65% 30.45 in 10.0 mi SSW 5.8 mph - N/A Snow Light Snow
7:35 AM 35.6 °F 30.7 °F 26.6 °F 70% 30.46 in 10.0 mi SW 5.8 mph - N/A Rain Light Rain
8:16 AM 33.8 °F 29.6 °F 30.2 °F 87% 30.47 in 5.0 mi SSW 4.6 mph - 0.01 in Rain Light Rain
8:35 AM 33.8 °F 30.8 °F 30.2 °F 87% 30.46 in 4.0 mi South 3.5 mph - 0.02 in Rain Light Rain
8:57 AM 35.6 °F 30.7 °F 30.2 °F 81% 30.47 in 5.0 mi SW 5.8 mph - N/A Rain Rain
9:15 AM 35.6 °F 29.9 °F 30.2 °F 81% 30.47 in 4.0 mi SW 6.9 mph - N/A Rain Rain
9:35 AM 35.6 °F 30.7 °F 30.2 °F 81% 30.46 in 3.0 mi SW 5.8 mph - 0.01 in Rain Rain
9:55 AM 35.6 °F 30.7 °F 32.0 °F 87% 30.45 in 2.5 mi SSW 5.8 mph - 0.03 in Rain Rain
10:15 AM 35.6 °F 28.6 °F 32.0 °F 87% 30.43 in 5.0 mi South 9.2 mph - N/A Rain Light Rain
10:35 AM 35.6 °F 28.6 °F 33.8 °F 93% 30.42 in 7.0 mi SSW 9.2 mph - N/A   Light Drizzle
10:55 AM 37.4 °F 31.4 °F 33.8 °F 87% 30.41 in 7.0 mi SSW 8.1 mph 16.1 mph N/A   Drizzle
11:15 AM 37.4 °F 31.4 °F 33.8 °F 87% 30.39 in 7.0 mi SSW 8.1 mph - N/A Rain Light Rain
11:36 AM 37.4 °F 30.8 °F 33.8 °F 87% 30.38 in 7.0 mi SSW 9.2 mph - N/A   Light Drizzle
11:56 AM 37.4 °F 30.3 °F 33.8 °F 87% 30.36 in 10.0 mi SSW 10.4 mph - N/A   Mostly Cloudy
12:16 PM 37.4 °F 30.8 °F 33.8 °F 87% 30.34 in 10.0 mi SW 9.2 mph - N/A   Mostly Cloudy
12:35 PM 39.2 °F 34.2 °F 33.8 °F 81% 30.32 in 10.0 mi SSW 6.9 mph - N/A   Mostly Cloudy
12:56 PM 39.2 °F 34.2 °F 33.8 °F 81% 30.31 in 10.0 mi SW 6.9 mph 12.7 mph N/A   Overcast
1:16 PM 39.2 °F 32.5 °F 33.8 °F 81% 30.28 in 10.0 mi SW 10.4 mph - N/A   Overcast
1:36 PM 42.8 °F 38.0 °F 33.8 °F 70% 30.26 in 10.0 mi SW 8.1 mph - N/A   Mostly Cloudy
1:55 PM 44.6 °F 39.2 °F 33.8 °F 66% 30.25 in 10.0 mi SW 10.4 mph 18.4 mph N/A   Scattered Clouds
2:15 PM 46.4 °F 40.4 °F 33.8 °F 62% 30.23 in 10.0 mi SW 13.8 mph 17.3 mph N/A   Clear
2:35 PM 46.4 °F 39.8 °F 32.0 °F 57% 30.22 in 10.0 mi SSW 16.1 mph 23.0 mph N/A   Clear
2:55 PM 48.2 °F - 32.0 °F 54% 30.21 in 10.0 mi SSW 17.3 mph 24.2 mph N/A   Clear
3:15 PM 48.2 °F - 32.0 °F 54% 30.20 in 10.0 mi SSW 17.3 mph - N/A   Clear
3:35 PM 46.4 °F 40.1 °F 33.8 °F 62% 30.20 in 10.0 mi SSW 15.0 mph 21.9 mph N/A   Clear
3:55 PM 48.2 °F - 35.6 °F 62% 30.20 in 10.0 mi SW 15.0 mph 20.7 mph N/A   Clear
4:15 PM 48.2 °F - 35.6 °F 62% 30.19 in 10.0 mi SW 13.8 mph 20.7 mph N/A   Clear
4:35 PM 48.2 °F - 37.4 °F 66% 30.19 in 10.0 mi SW 17.3 mph 21.9 mph N/A   Clear
4:55 PM 48.2 °F - 39.2 °F 71% 30.18 in 10.0 mi SW 13.8 mph 21.9 mph N/A   Clear
5:15 PM 48.2 °F - 39.2 °F 71% 30.19 in 10.0 mi SW 12.7 mph 21.9 mph N/A   Clear
5:37 PM 48.2 °F - 39.2 °F 71% 30.18 in 10.0 mi SSW 12.7 mph 18.4 mph N/A   Clear
6:16 PM 48.2 °F - 39.2 °F 71% 30.18 in 10.0 mi SW 12.7 mph 21.9 mph N/A   Clear
6:35 PM 48.2 °F - 39.2 °F 71% 30.18 in 10.0 mi SW 13.8 mph 19.6 mph N/A   Clear
6:56 PM 48.2 °F - 39.2 °F 71% 30.18 in 10.0 mi SW 12.7 mph - N/A   Clear
7:15 PM 48.2 °F - 41.0 °F 76% 30.17 in 10.0 mi SW 11.5 mph 17.3 mph N/A   Clear
7:35 PM 48.2 °F - 41.0 °F 76% 30.16 in 10.0 mi SSW 12.7 mph 17.3 mph N/A   Clear
7:55 PM 48.2 °F - 41.0 °F 76% 30.15 in 10.0 mi SW 16.1 mph 20.7 mph N/A   Clear
8:15 PM 50.0 °F - 42.8 °F 76% 30.14 in 10.0 mi SW 13.8 mph 24.2 mph N/A   Scattered Clouds
8:35 PM 51.8 °F - 42.8 °F 71% 30.14 in 10.0 mi SW 17.3 mph 24.2 mph N/A   Mostly Cloudy
8:55 PM 51.8 °F - 42.8 °F 71% 30.14 in 10.0 mi SW 18.4 mph 26.5 mph N/A   Overcast
9:15 PM 51.8 °F - 42.8 °F 71% 30.13 in 10.0 mi SW 15.0 mph 25.3 mph N/A   Overcast
9:35 PM 51.8 °F - 42.8 °F 71% 30.14 in 10.0 mi SW 13.8 mph 25.3 mph N/A   Mostly Cloudy
9:55 PM 51.8 °F - 42.8 °F 71% 30.13 in 10.0 mi WSW 11.5 mph 19.6 mph N/A   Overcast
10:15 PM 51.8 °F - 42.8 °F 71% 30.13 in 10.0 mi WSW 13.8 mph 18.4 mph N/A   Overcast
10:35 PM 51.8 °F - 44.6 °F 76% 30.13 in 10.0 mi WSW 12.7 mph 18.4 mph N/A   Overcast
10:56 PM 51.8 °F - 44.6 °F 76% 30.12 in 10.0 mi WSW 12.7 mph 20.7 mph N/A   Scattered Clouds
11:16 PM 51.8 °F - 44.6 °F 76% 30.12 in 10.0 mi WSW 11.5 mph 23.0 mph N/A   Mostly Cloudy
11:35 PM 51.8 °F - 44.6 °F 76% 30.13 in 10.0 mi WSW 13.8 mph - N/A   Overcast
11:55 PM 51.8 °F - 44.6 °F 76% 30.13 in 10.0 mi WSW 16.1 mph 20.7 mph N/A   Scattered Clouds